Weather History for Doha, Qatar

Change the Weather History Date:

Wednesday, August 8, 2012

  Actual Average Record
Temperature  
Mean Temperature 98 °F -  
Max Temperature 103 °F 104 °F 113 °F (2011)
Min Temperature 92 °F 83 °F 84 °F (2002)
Cooling Degree Days 32    
Growing Degree Days 48 (Base 50)    
Moisture  
Dew Point 84 °F    
Average Humidity 66    
Maximum Humidity 79    
Minimum Humidity 48    
Precipitation  
Precipitation 0.00 in 0.00 in - ()
Sea Level Pressure  
Sea Level Pressure 29.54 in    
Wind  
Wind Speed 7 mph ()    
Max Wind Speed 12 mph    
Max Gust Speed -    
Visibility 4.3 miles    
Events      
Averages and records for this station are not official NWS values.
T = Trace of Precipitation, MM = Missing Value Source: Averaged Metar Reports

Daily Weather History Graph

Daily Weather History Graph

Search for Another Location

Airport:

Trip Planner

Search our weather history database for the weather conditions in past years. The results will help you decide how hot, cold, wet, or windy it might be!

Date:

Astronomy

Aug. 08, 2012 Rise Set
Actual Time 5:04 AM AST 6:14 PM AST
Civil Twilight 4:40 AM AST 6:38 PM AST
Nautical Twilight 4:11 AM AST 7:06 PM AST
Astronomical Twilight 3:41 AM AST 7:36 PM AST
Moon 10:04 PM AST (8/8) 10:39 AM AST (8/8)
Length of Visible Light 13h 58m
Length of Day
13h 09m
Waning Gibbous, 63% of the Moon is Illuminated
Aug 8
Waning Gibbous
Aug 9
Last Quarter
Aug 17
New
Aug 24
First Quarter
Aug 31
Full

Hourly Weather History & Observations

Time (AST) Temp. Heat Index Dew Point Humidity Pressure Visibility Wind Dir Wind Speed Gust Speed Precip Events Conditions
12:00 AM 95.0 °F 123.7 °F 84.2 °F 71% 29.50 in 5.0 mi NNE 9.2 mph - N/A   Unknown
12:30 AM 93.2 °F 124.9 °F 86.0 °F 79% 29.50 in 5.0 mi North 11.5 mph - N/A   Unknown
1:00 AM 93.2 °F 124.9 °F 86.0 °F 79% 29.50 in 5.0 mi North 11.5 mph - N/A   Unknown
1:30 AM 93.2 °F 120.9 °F 84.2 °F 75% 29.50 in 5.0 mi NNW 9.2 mph - N/A   Unknown
2:00 AM 93.2 °F 124.9 °F 86.0 °F 79% 29.50 in 4.3 mi North 6.9 mph - N/A   Unknown
2:30 AM 93.2 °F 124.9 °F 86.0 °F 79% 29.50 in 4.3 mi NNE 3.5 mph - N/A   Unknown
3:00 AM 94 °F - 85 °F 71% 29.52 in 4 mi North 3.5 mph - -   Haze
3:00 AM 93.2 °F 124.9 °F 86.0 °F 79% 29.50 in 4.3 mi North 3.5 mph - N/A   Unknown
4:00 AM 93.2 °F 124.9 °F 86.0 °F 79% 29.53 in 4.3 mi North 3.5 mph - N/A   Unknown
4:30 AM 93.2 °F 124.9 °F 86.0 °F 79% 29.53 in 4.3 mi ENE 3.5 mph - N/A   Unknown
5:00 AM 93.2 °F 124.9 °F 86.0 °F 79% 29.53 in 3.7 mi Variable 2.3 mph - N/A   Unknown
5:30 AM 93.2 °F 124.9 °F 86.0 °F 79% 29.56 in 3.7 mi NNE 3.5 mph - N/A   Partly Cloudy
6:00 AM 93.2 °F 124.9 °F 86.0 °F 79% 29.56 in 3.7 mi NE 5.8 mph - N/A   Partly Cloudy
6:30 AM 95.0 °F 123.7 °F 84.2 °F 71% 29.56 in 4.3 mi NE 6.9 mph - N/A   Partly Cloudy
7:00 AM 96.8 °F 126.0 °F 84.2 °F 67% 29.56 in 4.3 mi NE 6.9 mph - N/A   Unknown
7:30 AM 96.8 °F 121.7 °F 82.4 °F 63% 29.56 in 5.0 mi ENE 4.6 mph - N/A   Unknown
8:00 AM 98.6 °F 120.3 °F 80.6 °F 56% 29.56 in 5.0 mi East 6.9 mph - N/A   Unknown
8:30 AM 98.6 °F 120.3 °F 80.6 °F 56% 29.56 in 5.0 mi ENE 6.9 mph - N/A   Unknown
9:00 AM 100 °F - 82 °F 48% 29.60 in 5 mi East 6.9 mph - -   Widespread Dust
9:00 AM 100.4 °F 126.1 °F 82.4 °F 56% 29.59 in 5.0 mi East 6.9 mph - N/A   Unknown
9:30 AM 98.6 °F 128.0 °F 84.2 °F 63% 29.59 in 5.0 mi ENE 8.1 mph - N/A   Unknown
10:00 AM 100.4 °F 130.9 °F 84.2 °F 60% 29.59 in 5.0 mi ENE 5.8 mph - N/A   Unknown
10:30 AM 100.4 °F 130.9 °F 84.2 °F 60% 29.59 in 5.0 mi ENE 5.8 mph - N/A   Unknown
11:00 AM 102.2 °F 128.5 °F 82.4 °F 53% 29.56 in 5.0 mi ENE 5.8 mph - N/A   Unknown
11:30 AM 102.2 °F 128.5 °F 82.4 °F 53% 29.56 in 5.0 mi East 6.9 mph - N/A   Unknown
12:00 PM 102.2 °F 128.5 °F 82.4 °F 53% 29.56 in 4.3 mi ENE 6.9 mph - N/A   Unknown
12:30 PM 102.2 °F 133.6 °F 84.2 °F 57% 29.56 in - ENE 8.1 mph - N/A   Unknown
1:00 PM 100.4 °F 130.9 °F 84.2 °F 60% 29.56 in 3.7 mi ENE 8.1 mph - N/A   Unknown
1:30 PM 100.4 °F 130.9 °F 84.2 °F 60% 29.56 in 3.7 mi ENE 9.2 mph - N/A   Unknown
2:00 PM 100.4 °F 126.1 °F 82.4 °F 56% 29.53 in 3.7 mi ENE 9.2 mph - N/A   Unknown
2:30 PM 100.4 °F 126.1 °F 82.4 °F 56% 29.53 in 3.7 mi NE 9.2 mph - N/A   Unknown
3:00 PM 100 °F - 83 °F 50% 29.55 in 4 mi NE 9.2 mph - -   Widespread Dust
3:00 PM 100.4 °F 126.1 °F 82.4 °F 56% 29.53 in 3.7 mi NE 9.2 mph - N/A   Unknown
3:30 PM 100.4 °F 126.1 °F 82.4 °F 56% 29.53 in 3.7 mi NE 10.4 mph - N/A   Unknown
4:00 PM 100.4 °F 126.1 °F 82.4 °F 56% 29.53 in 3.7 mi NE 9.2 mph - N/A   Unknown
4:30 PM 98.6 °F 124.6 °F 82.4 °F 60% 29.53 in 3.7 mi ENE 9.2 mph - N/A   Unknown
5:00 PM 98.6 °F 128.0 °F 84.2 °F 63% 29.53 in 3.7 mi NE 9.2 mph - N/A   Unknown
5:30 PM 96.8 °F 121.7 °F 82.4 °F 63% 29.53 in 3.7 mi NNE 9.2 mph - N/A   Unknown
6:00 PM 96.8 °F 126.0 °F 84.2 °F 67% 29.53 in 3.7 mi NNE 9.2 mph - N/A   Unknown
6:30 PM 96.8 °F 126.0 °F 84.2 °F 67% 29.53 in 3.7 mi NNE 9.2 mph - N/A   Unknown
7:00 PM 95.0 °F 123.7 °F 84.2 °F 71% 29.53 in 3.7 mi NNE 9.2 mph - N/A   Unknown
7:30 PM 95.0 °F 123.7 °F 84.2 °F 71% 29.53 in 4.3 mi NNE 9.2 mph - N/A   Unknown
8:00 PM 95.0 °F 123.7 °F 84.2 °F 71% 29.56 in 4.3 mi NNE 9.2 mph - N/A   Unknown
8:30 PM 95.0 °F 123.7 °F 84.2 °F 71% 29.56 in 4.3 mi NNE 8.1 mph - N/A   Unknown
9:00 PM 95 °F - 84 °F 64% 29.57 in 4 mi North 8.1 mph - -   Haze
9:00 PM 95.0 °F 123.7 °F 84.2 °F 71% 29.56 in 4.3 mi North 8.1 mph - N/A   Unknown
9:30 PM 95.0 °F 123.7 °F 84.2 °F 71% 29.56 in 4.3 mi North 8.1 mph - N/A   Unknown
10:00 PM 95.0 °F 123.7 °F 84.2 °F 71% 29.56 in 4.3 mi North 8.1 mph - N/A   Unknown
10:30 PM 95.0 °F 119.6 °F 82.4 °F 67% 29.56 in 4.3 mi North 9.2 mph - N/A   Unknown
11:00 PM 96.8 °F 118.6 °F 80.6 °F 60% 29.56 in 5.0 mi North 8.1 mph - N/A   Unknown
11:30 PM 95.0 °F 119.6 °F 82.4 °F 67% 29.53 in 5.0 mi North 6.9 mph - N/A   Unknown